Regional Weather Roundup
Issued by NWS Sioux Falls, SD

Home | Current Version | Previous Version | Text Only | Print | Product List | Glossary On
Versions: 1 2 3 4 5 6 7 8 9 10 11 12 13 14 15 16 17 18 19 20 21 22 23 24 25 26 27 28 29 30 31 32 33 34 35 36 37 38 39 40 41 42 43 44 45 46 47 48 49 50
000
ASUS43 KFSD 241410
RWRFSD

WEATHER ROUNDUP FOR SE SOUTH DAKOTA/SW MINNESOTA/NW IOWA
NATIONAL WEATHER SERVICE SIOUX FALLS SD
900 AM CDT THU MAY 24 2018

NOTE: "FAIR" INDICATES FEW OR NO CLOUDS BELOW 12,000 FEET WITH NO
SIGNIFICANT WEATHER AND OR OBSTRUCTIONS TO VISIBILITY.


SDZ038>040-050-052>070-241500-
SOUTHEAST SOUTH DAKOTA

CITY           SKY/WX    TMP DP  RH WIND       PRES   REMARKS
BROOKINGS      CLOUDY    70  65  84 S18       29.93S
CHAMBERLAIN    PTSUNNY   72  63  72 SW10      29.89S
HURON          PTSUNNY   71  58  63 S13       29.91S
MADISON        FAIR      72  72 100 S15       29.95R
MITCHELL       PTSUNNY   70  60  70 S18G29    29.91S
SIOUX FALLS    CLOUDY    72  66  81 S17G23    29.96F
WINNER         FAIR      70  58  65 S16G29    29.90F
YANKTON        MOSUNNY   71  64  78 SE8       29.98F
$$

MNZ071-072-080-081-089-090-097-098-241500-
SOUTHWEST MINNESOTA

CITY           SKY/WX    TMP DP  RH WIND       PRES   REMARKS
FAIRMONT       CLOUDY    73  67  81 S13       30.06R
JACKSON        CLOUDY    72  64  78 S10       30.05F
LUVERNE        CLOUDY    70  63  78 S12       30.00S
MARSHALL       CLOUDY    70  64  81 S14       29.95F
MONTEVIDEO     CLOUDY    73  64  73 S13G18    29.93F
PIPESTONE      PTSUNNY   68  64  88 S10       29.97F
REDWOOD FALLS  CLOUDY    74  67  78 S15       29.98F
TRACY          CLOUDY    69  67  90 S13       29.97F
WINDOM         CLOUDY    73  54  49 S10       30.02F
WORTHINGTON    CLOUDY    72  65  78 S13       30.03F
$$

IAZ001>003-012>014-020>022-031-032-NEZ013-014-SDZ071-241500-
NORTHWEST IOWA

CITY           SKY/WX    TMP DP  RH WIND       PRES   REMARKS
CHEROKEE       CLOUDY    73  67  81 S12       30.04F
DENISON        CLOUDY    73  66  78 S8G18     30.08S
ESTHERVILLE    CLOUDY    71  66  84 S16       30.04F
ORANGE CITY    CLOUDY    73  68  83 S13G18    30.03F
SHELDON        CLOUDY    73  68  83 S12       30.01F
SIOUX CITY     CLOUDY    73  65  75 S12       30.03S
SPENCER        CLOUDY    74  66  76 S12       30.04F
STORM LAKE     CLOUDY    73  66  78 S15       30.05F
$$

ABBREVIATIONS USED IN REMARKS
   TC - TEMPERATURE IN CELSIUS
  WCI - WIND CHILL INDEX
   HX - HEAT INDEX
  VSB - VISIBILITY




USA.gov is the U.S. government's official web portal to all federal, state and local government web resources and services.